User: anonymous   Login
Location: Unspecified
(0.0000°N, 0.0000°E)
Time: 04:34:33
(UTC+00:00)
Language:

Nadezhda 2 - Orbit

View from above orbital plane
View from above orbital plane
View from above satellite
View from above satellite

Ground track
Ground track

The orbit data is extracted from the following two-line orbital elements,

1 20508U 90017A   18343.90254991 +.00000026 +00000-0 +11346-4 0  9997
2 20508 082.9551 302.4465 0044207 173.1120 239.3644 13.74267961443157
Epoch (UTC): 09 December 2018 21:39:40
Eccentricity: 0.0044207
inclination: 82.9551°
perigee height: 952 km
apogee height: 1017 km
right ascension of ascending node: 302.4465°
argument of perigee: 173.1120°
revolutions per day: 13.74267961
mean anomaly at epoch: 239.3644°
orbit number at epoch: 44315

The dashed part of the orbit path shows where the satellite is in the earth's shadow,  

DLR